Change the Weather History Date:

Thursday, January 19, 2012

  Actual Average Record
Temperature  
Mean Temperature 20 °F -  
Max Temperature 30 °F 28 °F 44 °F (1999)
Min Temperature 10 °F 15 °F -2 °F (1997)
Degree Days  
Heating Degree Days 45    
Moisture  
Dew Point 10 °F    
Average Humidity 67    
Maximum Humidity 93    
Minimum Humidity 42    
Precipitation  
Precipitation 0.00 in - - ()
Sea Level Pressure  
Sea Level Pressure 30.13 in    
Wind  
Wind Speed 5 mph (SW)    
Max Wind Speed 9 mph    
Max Gust Speed -    
Visibility 9 miles    
Events Snow    
Averages and records for this station are not official NWS values.
T = Trace of Precipitation, MM = Missing Value Source: NWS Daily Summary

Daily Weather History Graph

Daily Weather History Graph

Search for Another Location

Airport or City:

Trip Planner

Search our weather history database for the weather conditions in past years. The results will help you decide how hot, cold, wet, or windy it might be!

Date:

Astronomy

Jan. 19, 2012 Rise Set
Actual Time 7:14 AM EST 4:51 PM EST
Civil Twilight 6:44 AM EST 5:22 PM EST
Nautical Twilight 6:10 AM EST 5:56 PM EST
Astronomical Twilight 5:37 AM EST 6:29 PM EST
Moon 3:49 AM EST 1:20 PM EST
Length of Visible Light 10h 37m
Length of Day
9h 37m
Waning Crescent, 16% of the Moon is Illuminated
Jan 19
Waning Crescent
Jan 23
New
Jan 30
First Quarter
Feb 7
Full
Feb 14
Last Quarter

Hourly Weather History & Observations

Time (EST) Temp. Windchill Dew Point Humidity Pressure Visibility Wind Dir Wind Speed Gust Speed Precip Events Conditions
12:15 AM 14.0 °F 6.5 °F 1.4 °F 57% 30.17 in 10.0 mi North 4.6 mph - N/A   Clear
12:35 AM 14.0 °F 8.2 °F 3.2 °F 62% 30.17 in 10.0 mi North 3.5 mph - N/A   Clear
12:55 AM 14.0 °F 8.2 °F 1.4 °F 57% 30.16 in 10.0 mi North 3.5 mph - N/A   Clear
1:15 AM 14.0 °F - 3.2 °F 62% 30.17 in 10.0 mi Calm Calm - N/A   Clear
1:55 AM 14.0 °F - 1.4 °F 57% 30.19 in 10.0 mi Calm Calm - N/A   Clear
2:15 AM 12.2 °F - 5.0 °F 73% 30.19 in 10.0 mi Calm Calm - N/A   Clear
2:35 AM 10.4 °F 4.0 °F 1.4 °F 67% 30.19 in 10.0 mi North 3.5 mph - N/A   Clear
2:55 AM 10.4 °F 4.0 °F 3.2 °F 73% 30.20 in 10.0 mi North 3.5 mph - N/A   Clear
3:15 AM 10.4 °F -0.4 °F 3.2 °F 73% 30.19 in 10.0 mi North 6.9 mph - N/A   Clear
3:35 AM 12.2 °F 2.9 °F 1.4 °F 62% 30.19 in 10.0 mi North 5.8 mph - N/A   Clear
3:55 AM 10.4 °F -0.4 °F 3.2 °F 73% 30.19 in 10.0 mi North 6.9 mph - N/A   Clear
4:15 AM 10.4 °F 0.8 °F 1.4 °F 67% 30.19 in 10.0 mi NNW 5.8 mph - N/A   Clear
4:35 AM 12.2 °F 1.7 °F 3.2 °F 67% 30.20 in 10.0 mi North 6.9 mph - N/A   Clear
4:55 AM 10.4 °F 2.2 °F 1.4 °F 67% 30.20 in 10.0 mi NNW 4.6 mph - N/A   Clear
5:15 AM 12.2 °F 1.7 °F 3.2 °F 67% 30.20 in 10.0 mi North 6.9 mph - N/A   Clear
5:35 AM 10.4 °F 2.2 °F 1.4 °F 67% 30.21 in 10.0 mi NNW 4.6 mph - N/A   Clear
5:45 AM 10.4 °F 0.8 °F 3.2 °F 73% 30.20 in 10.0 mi North 5.8 mph - N/A   Clear
6:45 AM 10.4 °F 2.2 °F 3.2 °F 73% 30.23 in 10.0 mi East 4.6 mph - N/A   Clear
7:45 AM 10.4 °F - 3.2 °F 73% 30.23 in 10.0 mi North - - N/A   Clear
8:45 AM 15.8 °F - 3.2 °F 58% 30.25 in 10.0 mi Calm Calm - N/A   Clear
9:45 AM 17.6 °F 7.3 °F 3.2 °F 53% 30.26 in 10.0 mi SE 8.1 mph - N/A   Clear
10:45 AM 19.4 °F 12.8 °F 1.4 °F 46% 30.22 in 10.0 mi Variable 4.6 mph - N/A   Clear
11:20 AM 21.2 °F 14.9 °F 1.4 °F 42% 30.20 in 10.0 mi SSE 4.6 mph - N/A   Mostly Cloudy
11:45 AM 21.2 °F 14.9 °F 1.4 °F 42% 30.18 in 10.0 mi South 4.6 mph - N/A   Mostly Cloudy
1:45 PM 28.4 °F 19.7 °F 10.4 °F 47% 30.11 in 10.0 mi SSE 9.2 mph - N/A   Clear
2:45 PM 28.4 °F 19.7 °F 10.4 °F 47% 30.10 in 10.0 mi South 9.2 mph - N/A   Scattered Clouds
3:45 PM 26.6 °F 17.5 °F 14.0 °F 59% 30.08 in 10.0 mi South 9.2 mph - N/A   Scattered Clouds
4:45 PM 26.6 °F 19.1 °F 15.8 °F 64% 30.05 in 10.0 mi SSE 6.9 mph - N/A   Scattered Clouds
5:45 PM 26.6 °F 20.0 °F 19.4 °F 74% 30.07 in 10.0 mi South 5.8 mph - N/A Snow Light Snow
6:45 PM 28.4 °F 23.3 °F 23.0 °F 80% 30.04 in 2.0 mi South 4.6 mph - N/A Snow Light Snow
8:45 PM 28.4 °F 23.3 °F 26.6 °F 93% 29.99 in 1.0 mi SSW 4.6 mph - N/A Snow Light Snow
9:15 PM 30.2 °F 23.4 °F 26.6 °F 86% 29.98 in 6.0 mi SSW 6.9 mph - N/A   Mostly Cloudy
9:35 PM 30.2 °F 23.4 °F 26.6 °F 86% 29.98 in 4.0 mi SSW 6.9 mph - N/A   Overcast
9:55 PM 30.2 °F 23.4 °F 26.6 °F 86% 29.97 in 3.0 mi SSW 6.9 mph - N/A   Overcast
10:35 PM 30.2 °F 25.4 °F 24.8 °F 80% 29.96 in 10.0 mi SSW 4.6 mph - N/A   Overcast
10:55 PM 30.2 °F 24.3 °F 24.8 °F 80% 29.96 in 10.0 mi SSW 5.8 mph - N/A   Overcast
11:15 PM 30.2 °F 26.7 °F 23.0 °F 75% 29.95 in 10.0 mi SW 3.5 mph - N/A   Overcast
11:35 PM 30.2 °F 25.4 °F 23.0 °F 75% 29.94 in 10.0 mi SW 4.6 mph - N/A   Overcast
11:55 PM 30.2 °F 24.3 °F 23.0 °F 75% 29.93 in 10.0 mi SSW 5.8 mph - N/A   Overcast